DW8785 Weather Reports


time (UTC)temp
C
wind
direction
speed
KPH
gust
KPH
rain 1hr
cm
rain 24hr
cm
rain mn
cm
humidity
%
barometer
mb
20260508124554 13 0 0.0 0.0 0.00 0.00 0.00 91 1012.8
20260508123050 13 38 0.0 0.0 0.00 0.00 0.00 88 1012.9
20260508121600 13 309 0.0 0.0 0.00 0.00 0.00 87 1012.7
20260508120041 13 3 0.0 0.0 0.00 0.00 0.00 87 1012.4
20260508114537 13 55 4.8 0.0 0.00 0.00 0.00 87 1012.5
20260508113032 13 352 1.6 0.0 0.00 0.00 0.00 83 1012.3
20260508111528 13 48 4.8 0.0 0.00 0.00 0.00 84 1012.4
20260508110026 13 56 4.8 0.0 0.00 0.00 0.00 85 1012.7
20260508104523 13 40 3.2 0.0 0.00 0.00 0.00 84 1012.8
20260508103016 13 51 4.8 0.0 0.00 0.00 0.00 84 1012.8
20260508101511 13 44 1.6 0.0 0.00 0.00 0.00 84 1012.8
20260508100007 13 18 1.6 0.0 0.00 0.00 0.00 87 1012.8
20260508094502 12 30 8.0 0.0 0.00 0.00 0.00 88 1012.9
20260508093058 12 47 8.0 0.0 0.00 0.00 0.00 87 1012.9
20260508091558 12 48 6.4 0.0 0.00 0.00 0.00 88 1012.8
20260508090049 12 59 8.0 0.0 0.00 0.00 0.00 91 1012.7
20260508084544 12 357 3.2 0.0 0.00 0.00 0.00 92 1012.7
20260508083115 11 62 8.0 0.0 0.00 0.00 0.00 95 1013.0
20260508081541 11 49 8.0 0.0 0.00 0.00 0.00 94 1012.9
20260508080041 11 37 9.7 0.0 0.00 0.00 0.00 95 1012.6
20260508074532 11 25 9.7 0.0 0.00 0.00 0.00 98 1012.6
20260508073025 11 27 9.7 0.0 0.00 0.00 0.00 100 1012.5
20260508071524 11 55 9.7 0.0 0.00 0.00 0.00 100 1012.4
20260508070016 11 47 6.4 0.0 0.00 0.00 0.00 100 1012.4
20260508064531 10 61 3.2 0.0 0.00 0.00 0.00 100 1012.3
20260508063005 10 69 4.8 0.0 0.00 0.00 0.00 100 1012.2
20260508061502 10 62 1.6 0.0 0.00 0.00 0.00 100 1012.0
20260508060106 9 45 4.8 0.0 0.00 0.00 0.00 100 1012.0
20260508054556 10 51 6.4 0.0 0.00 0.00 0.00 100 1011.8
20260508053048 10 64 3.2 0.0 0.00 0.00 0.00 99 1011.6
20260508051545 10 54 1.6 0.0 0.00 0.00 0.00 99 1011.4
20260508050045 10 64 0.0 0.0 0.00 0.00 0.00 99 1011.3
20260508044536 10 64 0.0 0.0 0.00 0.00 0.00 98 1011.2
20260508043035 10 64 1.6 0.0 0.00 0.00 0.00 98 1011.0
20260508041527 10 62 0.0 0.0 0.00 0.00 0.00 98 1010.9
20260508040023 10 62 0.0 0.0 0.00 0.00 0.00 98 1010.9
20260508034518 10 58 4.8 0.0 0.00 0.00 0.00 97 1010.8
20260508033016 10 56 6.4 0.0 0.00 0.00 0.00 97 1010.7
20260508031509 10 54 6.4 0.0 0.00 0.00 0.00 96 1010.7
20260508030007 10 58 6.4 0.0 0.00 0.00 0.00 94 1010.5
20260508024501 11 54 6.4 0.0 0.00 0.00 0.00 93 1010.4
20260508023057 11 55 0.0 0.0 0.00 0.00 0.00 91 1010.4
20260508021553 11 56 0.0 0.0 0.00 0.00 0.00 89 1010.4
20260508020050 11 56 0.0 0.0 0.00 0.00 0.00 89 1010.6
20260508014545 11 58 0.0 0.0 0.00 0.00 0.00 86 1010.4
20260508013039 12 58 0.0 0.0 0.00 0.00 0.00 84 1010.5
20260508011548 12 59 0.0 0.0 0.00 0.00 0.00 82 1010.6
20260508010034 12 58 0.0 0.0 0.00 0.00 0.00 78 1010.5
20260508004526 12 56 0.0 0.0 0.00 0.00 0.00 78 1010.5
20260508003029 12 55 0.0 0.0 0.00 0.00 0.00 76 1010.7
20260508001519 13 89 0.0 0.0 0.00 0.00 0.00 74 1010.6
20260508000013 13 137 0.0 0.0 0.00 0.00 0.00 76 1010.8
20260507234510 13 137 0.0 0.0 0.00 0.00 0.00 72 1011.0
20260507233005 12 137 0.0 0.0 0.00 0.00 0.00 72 1011.2
20260507231501 13 137 0.0 0.0 0.00 0.00 0.00 74 1011.4
20260507230058 13 137 0.0 0.0 0.00 0.00 0.00 72 1011.4
20260507224656 13 137 0.0 0.0 0.00 0.00 0.00 68 1011.2
20260507223056 13 137 0.0 0.0 0.00 0.00 0.00 69 1011.3
20260507221554 13 137 0.0 0.0 0.00 0.00 0.00 70 1011.2
20260507220054 13 137 0.0 0.0 0.00 0.00 0.00 73 1011.3
20260507214649 12 137 0.0 0.0 0.00 0.00 0.00 78 1011.3
20260507213102 12 137 0.0 0.0 0.00 0.00 0.00 78 1011.3
20260507211543 12 137 0.0 0.0 0.00 0.00 0.00 74 1011.4
20260507210039 12 137 0.0 0.0 0.00 0.00 0.00 69 1011.3
20260507204632 12 359 0.0 0.0 0.00 0.00 0.00 67 1011.3
20260507203028 12 359 0.0 0.0 0.00 0.00 0.00 66 1011.6
20260507201524 13 350 0.0 0.0 0.00 0.00 0.00 65 1011.5
20260507200032 13 359 0.0 0.0 0.00 0.00 0.00 64 1011.6
20260507194618 13 210 0.0 0.0 0.00 0.00 0.00 63 1011.6
20260507193013 13 359 8.0 0.0 0.00 0.00 0.00 61 1011.6
20260507191509 13 241 4.8 0.0 0.00 0.00 0.00 60 1011.4
20260507190020 13 359 8.0 0.0 0.00 0.00 0.00 60 1011.2
20260507184603 13 359 6.4 0.0 0.00 0.00 0.00 60 1011.1
20260507183100 14 253 9.7 0.0 0.00 0.00 0.00 59 1011.1
20260507181555 14 313 9.7 0.0 0.00 0.00 0.00 59 1011.0
20260507180053 14 359 9.7 0.0 0.00 0.00 0.00 60 1010.8
20260507174548 15 359 8.0 0.0 0.00 0.00 0.00 59 1010.5
20260507173042 15 281 8.0 0.0 0.00 0.00 0.00 59 1010.5
20260507171538 15 284 14.5 0.0 0.00 0.00 0.00 58 1010.4
20260507170035 15 285 12.9 0.0 0.00 0.00 0.00 59 1010.6
20260507164529 15 359 12.9 0.0 0.00 0.00 0.00 58 1010.2
20260507163025 15 280 14.5 0.0 0.00 0.00 0.00 59 1010.2
20260507161520 15 189 12.9 0.0 0.00 0.00 0.00 57 1010.3
20260507160017 15 359 14.5 0.0 0.00 0.00 0.00 57 1010.3
20260507154513 15 196 14.5 0.0 0.00 0.00 0.00 59 1010.4
20260507153007 15 357 12.9 0.0 0.00 0.00 0.00 59 1010.4
20260507151502 15 168 9.7 0.0 0.00 0.00 0.00 58 1010.6
20260507150100 15 196 16.1 0.0 0.00 0.00 0.00 60 1010.6
20260507144558 15 357 19.3 0.0 0.00 0.00 0.00 60 1010.6
20260507143049 15 196 20.9 0.0 0.00 0.00 0.00 63 1010.6
20260507141552 15 357 16.1 0.0 0.00 0.00 0.00 61 1010.5
20260507134537 15 189 24.1 0.0 0.00 0.00 0.00 58 1010.4
20260507133034 16 240 20.9 0.0 0.00 0.00 0.00 60 1010.3
20260507131528 15 186 25.7 0.0 0.00 0.00 0.00 60 1010.5